SCP
0 0 0 0 0 0 0 0 0 0 0 0 0 0 0 0 0 0 0 0 1 1 1 1 1 1 2 2 2 2 2 2 2 3 2 2 1 1 1 1 1 0 0 1
0 0 0 0 0 0 0 0 0 0 0 0 0 0 0 0 0 0 0 0 1 1 1 1 1 1 2 2 2 2 2 2 2 3 3 2 2 1 1 1 1 1 1 1
0 0 0 0 0 0 0 0 0 0 0 0 0 0 0 0 0 0 0 0 0 0 1 1 1 1 1 2 2 2 2 2 2 3 3 2 2 2 1 1 1 1 1 1
0 0 0 0 0 0 0 0 0 0 0 0 0 0 0 0 0 0 0 0 0 0 0 1 1 1 1 1 2 2 2 2 2 3 3 3 2 2 2 2 2 1 1 1
0 0 0 0 0 0 0 0 0 0 0 0 0 0 0 0 0 0 0 0 0 0 0 0 1 1 1 1 1 2 2 2 2 3 3 3 2 2 2 2 2 2 1 1
0 0 0 0 0 0 0 0 0 0 0 0 0 0 0 0 0 0 0 0 0 0 0 0 1 1 1 1 1 2 2 2 2 3 2 2 2 2 2 2 2 2 1 1
0 0 0 0 0 0 0 0 0 0 0 0 0 0 0 0 0 0 0 0 0 0 0 0 0 1 1 1 1 1 2 2 2 2 2 2 1 1 2 2 2 2 1 1
0 0 0 0 0 0 0 0 0 0 0 0 0 0 0 0 0 0 0 0 0 0 0 0 0 1 1 1 1 1 2 1 1 1 1 1 1 1 1 1 1 1 1 1
0 0 0 0 0 0 0 0 0 0 0 0 0 0 0 0 0 0 0 0 0 0 0 0 0 0 1 0 0 1 1 1 1 1 1 1 0 0 0 0 0 0 0 0
0 0 0 0 0 0 0 0 0 0 0 0 0 0 0 0 0 0 0 0 0 0 0 0 0 0 0 0 0 0 0 0 0 0 0 0 0 0 0 0 0 0 0 0
0 0 0 0 0 0 0 0 0 0 0 0 0 0 0 0 0 0 0 0 0 0 0 0 0 0 0 0 0 0 0 0 0 0 0 0 0 0 0 0 0 0 0 0
0 0 0 0 0 0 0 0 0 0 0 0 0 0 0 0 0 0 0 0 0 0 0 0 0 0 0 0 0 0 0 0 0 0 0 0 0 0 0 0 0 0 0 0
0 0 0 0 0 0 0 0 0 0 0 0 0 0 0 0 0 0 0 0 0 0 0 0 0 0 0 0 0 0 0 0 0 0 0 0 0 0 0 0 0 0 0 0
0 0 0 0 0 0 0 0 0 0 0 0 0 0 0 0 0 0 0 0 0 0 0 0 0 0 0 0 0 0 0 0 0 0 0 0 0 0 0 0 0 0 0 0
0 0 0 0 0 0 0 0 0 0 0 0 0 0 0 0 0 0 0 0 0 0 0 0 0 0 0 0 0 0 0 0 0 0 0 0 0 0 0 0 0 0 0 0
0 0 0 0 0 0 0 0 0 0 0 0 0 0 0 0 0 0 0 0 0 0 0 0 0 0 0 0 0 0 0 0 0 0 0 0 0 0 0 0 0 0 0 0
0 0 0 0 0 0 0 0 0 0 0 0 0 0 0 0 0 0 0 0 0 0 0 0 0 0 0 0 0 0 0 0 0 0 0 0 0 0 0 0 0 0 0 0
0 0 0 0 0 0 0 0 0 0 0 0 0 0 0 0 0 0 0 0 0 0 0 0 0 0 0 0 0 0 0 0 0 0 0 0 0 0 0 0 0 0 0 0
0 0 0 0 0 0 0 0 0 0 0 0 0 0 0 0 0 0 0 0 0 0 0 0 0 0 0 0 0 0 0 0 0 0 0 0 0 0 0 0 0 0 0 0
0 0 0 0 0 0 0 0 0 0 0 0 0 0 0 0 0 0 0 0 0 0 0 0 0 0 0 0 0 0 0 0 0 0 0 0 0 0 0 0 0 0 0 0
0 0 0 0 0 0 0 0 0 0 0 0 0 0 0 0 0 0 0 0 0 0 0 0 0 0 0 0 0 0 0 0 0 0 0 0 0 0 0 0 0 0 0 0
0 0 0 0 0 0 0 0 0 0 0 0 0 0 0 0 0 0 0 0 0 0 0 0 0 0 0 0 0 0 0 0 0 0 0 0 0 0 0 0 0 0 0 0
0 0 0 0 0 0 0 0 0 0 0 0 0 0 0 0 0 0 0 0 0 0 0 0 0 0 0 0 0 0 0 0 0 0 0 0 0 0 0 0 0 0 0 0
0 0 0 0 0 0 0 0 0 0 0 0 0 0 0 0 0 0 0 0 0 0 0 0 0 0 0 0 0 0 0 0 0 0 0 0 0 0 0 0 0 0 0 0
0 0 0 0 0 0 0 0 0 0 0 0 0 0 0 0 0 0 0 0 0 0 0 0 0 0 0 0 0 0 0 0 0 0 0 0 0 0 0 0 0 0 0 0
0 0 0 0 0 0 0 0 0 0 0 0 0 0 0 0 0 0 0 0 0 0 0 0 0 0 0 0 0 0 0 0 0 0 0 0 0 0 0 0 0 0 0 0
Wind_Speed
1 3 1 2 2 2 4 4 3 3 2 4 5 5 6 5 4 5 6 7 8 8 7 6 6 5 6 7 8 9 9 9 7 5 5 5 4 3 3 3 4 4 4 4
3 0 3 2 2 2 2 3 3 1 3 3 4 6 7 7 8 8 9 10 10 8 6 6 6 6 6 8 8 8 9 9 8 6 5 4 4 3 3 2 3 3 4 4
2 2 1 2 2 2 2 4 4 4 2 1 2 4 6 7 7 8 10 10 11 10 9 8 7 7 6 7 8 8 8 8 8 7 4 4 3 3 2 2 2 2 4 4
1 2 1 2 1 2 2 2 3 5 5 2 3 3 6 7 8 10 11 10 11 10 9 9 8 8 8 8 7 7 7 8 7 8 7 7 5 4 4 4 3 3 3 4
1 1 1 0 2 2 2 1 2 3 3 1 2 2 7 5 8 12 12 12 11 10 9 9 10 9 8 7 7 6 6 6 6 7 8 7 5 4 3 4 5 4 3 3
1 1 1 2 1 1 1 4 5 4 3 2 5 5 7 6 10 9 10 10 10 9 8 7 7 6 5 5 5 6 7 6 6 7 7 8 8 8 7 6 5 4 3 3
3 2 1 0 2 2 3 5 3 2 0 5 3 4 9 8 8 10 10 9 8 7 7 7 7 6 6 6 6 6 7 6 5 6 6 7 7 8 8 7 6 6 3 2
0 3 2 0 2 3 2 5 5 4 4 3 2 6 9 7 5 4 5 5 4 5 5 6 7 7 6 6 6 6 6 6 5 5 5 5 6 5 4 5 5 5 3 3
2 2 1 1 1 4 3 2 3 3 1 1 4 5 7 3 2 1 1 2 2 3 3 4 5 6 6 6 6 7 6 5 5 5 6 6 6 6 6 6 5 4 4 3
2 1 1 1 1 0 2 3 3 3 2 2 3 4 4 4 3 2 0 1 1 1 1 2 3 4 5 5 5 5 6 6 5 6 5 5 6 6 7 6 6 6 4 4
1 2 1 1 1 2 1 1 2 2 2 3 2 6 4 4 3 1 1 1 1 1 1 2 2 3 4 4 5 5 6 6 6 6 6 6 6 6 6 6 6 6 5 5
1 3 1 3 2 2 2 3 3 3 2 2 2 6 5 2 1 1 0 1 1 1 0 1 2 2 3 4 4 5 5 6 6 6 6 6 6 6 6 6 6 6 6 5
2 3 1 4 3 1 2 3 3 3 2 2 3 6 4 4 4 3 2 1 1 1 1 0 1 2 3 4 4 5 5 5 5 6 6 7 6 6 6 6 6 5 5 5
3 2 4 5 3 2 3 3 3 4 3 3 5 6 5 5 5 5 4 3 2 2 1 1 1 2 3 3 4 5 5 6 6 6 7 6 6 6 6 6 6 5 5 5
3 1 2 4 4 3 4 5 4 6 6 6 5 5 6 5 4 5 4 4 3 2 2 2 2 3 3 3 4 4 5 5 6 7 7 7 6 6 6 6 6 5 5 5
2 1 1 3 3 2 4 5 6 6 6 7 6 7 4 3 2 3 4 4 3 3 3 3 2 3 4 4 5 5 6 6 6 7 7 6 7 7 7 6 6 6 5 4
1 2 1 3 3 3 4 5 5 4 3 4 7 6 3 3 3 3 3 2 2 3 3 3 3 3 4 5 5 6 6 6 6 7 7 7 7 7 7 7 6 6 5 5
3 2 1 1 2 3 6 2 2 2 1 1 2 2 2 3 2 1 1 2 4 4 4 4 3 4 3 3 4 4 5 6 7 7 7 7 8 7 7 7 6 5 4 4
4 4 2 1 1 5 5 2 1 1 1 3 2 3 4 3 1 2 3 3 3 4 4 4 4 4 3 3 3 4 5 6 6 7 7 8 8 8 8 8 7 5 4 4
3 3 2 2 2 5 4 4 3 1 1 3 3 4 4 3 2 3 5 6 5 4 3 4 4 3 2 2 2 4 5 6 8 8 7 7 8 9 9 8 6 4 4 4
3 2 3 3 3 6 4 5 2 1 3 2 3 3 4 2 3 5 6 6 5 4 4 3 3 2 2 2 2 4 5 7 6 5 6 7 7 8 7 6 5 5 4 4
5 4 4 4 4 6 3 2 1 2 1 2 3 3 4 4 5 5 5 6 6 5 5 4 3 4 3 1 1 3 4 4 3 4 6 6 7 6 6 7 6 5 6 6
4 5 4 6 5 1 1 2 1 1 1 2 3 4 5 5 5 6 5 5 5 5 4 4 3 4 3 2 1 3 3 2 4 5 5 5 6 6 6 7 7 6 6 5
2 1 2 2 2 1 2 2 1 1 1 3 3 4 5 5 6 7 6 6 5 5 4 4 3 4 4 3 2 1 1 2 4 4 5 5 5 5 5 5 6 6 6 6
4 2 2 2 2 1 1 0 1 2 3 4 4 4 4 5 6 7 7 6 6 5 4 3 3 3 4 3 2 1 1 3 3 4 4 4 5 5 5 5 6 7 7 7
4 5 5 5 4 4 3 1 1 2 3 4 5 5 5 5 6 7 6 6 5 5 4 4 4 3 3 3 2 2 1 2 3 3 4 4 4 4 4 5 4 8 8 12
Wind_Direction
32 91 157 187 180 154 144 145 167 207 184 152 199 238 245 246 233 244 251 245 240 238 239 231 223 207 185 181 182 181 178 178 171 168 166 164 172 168 161 161 164 163 156 154
49 355 229 199 178 132 149 165 180 181 168 156 206 246 250 235 227 222 230 238 240 239 243 231 220 210 195 186 185 185 184 178 178 180 171 162 157 158 155 152 152 155 150 148
122 256 211 143 145 160 178 180 180 161 134 177 168 265 250 248 238 234 227 227 229 226 222 222 211 207 199 194 191 187 183 180 178 169 148 125 113 109 128 147 154 157 146 139
359 304 118 133 191 179 196 203 172 150 136 193 178 247 258 233 240 237 233 228 226 225 217 214 208 204 201 200 191 186 180 177 174 166 163 163 169 175 180 166 157 134 123 123
340 4 59 151 226 171 206 162 124 132 128 113 202 211 269 228 231 235 231 227 226 221 213 214 211 206 203 197 188 183 176 176 173 171 170 168 169 172 153 140 140 131 112 110
262 290 249 238 279 188 145 78 65 56 78 228 212 190 264 225 219 229 226 226 228 224 218 217 218 204 191 182 177 173 169 175 174 172 172 174 172 167 157 158 155 143 123 103
357 330 291 205 79 38 89 97 71 45 76 243 217 199 249 245 232 223 221 221 221 218 209 203 198 192 184 180 178 171 164 167 169 167 169 173 172 168 166 164 158 153 146 142
64 305 274 205 162 150 144 136 155 175 197 261 210 223 254 262 256 232 216 208 204 210 207 198 193 189 183 181 177 172 170 162 160 158 156 152 148 145 142 146 147 151 147 145
165 270 302 177 164 140 142 169 170 130 175 236 253 273 302 329 349 333 192 164 184 199 197 197 190 182 176 176 176 171 166 156 153 147 138 135 135 133 132 128 122 122 128 132
163 183 312 309 83 52 145 146 113 135 168 224 266 268 260 290 293 326 311 186 191 159 170 177 183 185 181 175 166 156 156 155 150 142 139 134 130 129 131 129 129 129 132 128
132 133 329 26 190 200 148 145 142 153 173 175 233 267 249 247 248 216 257 224 171 164 183 189 185 179 167 155 155 155 153 147 145 142 136 132 130 126 124 127 132 135 130 131
140 120 230 265 260 205 190 199 164 169 224 190 196 273 311 320 300 121 75 6 28 61 151 177 167 155 158 160 161 161 158 154 152 143 135 131 127 127 129 132 135 134 132 133
135 118 72 344 341 337 234 217 186 160 152 184 196 265 325 9 9 10 29 11 360 351 10 74 158 174 179 174 167 163 160 155 147 140 138 136 139 140 142 140 135 132 130 128
109 120 167 196 227 217 244 247 199 167 187 219 228 256 301 329 339 341 345 338 335 323 303 254 222 217 202 188 178 170 168 160 152 147 147 152 157 155 149 143 140 137 135 134
93 139 233 251 256 233 236 243 220 207 206 209 237 246 267 290 298 307 317 319 328 325 304 264 235 228 215 198 189 180 175 167 158 156 162 167 160 151 146 145 144 139 140 145
76 141 319 305 284 252 261 256 235 228 227 232 251 268 273 291 297 310 308 309 309 301 290 282 264 231 218 209 199 188 185 178 165 168 172 163 155 152 153 152 147 145 146 148
99 111 77 286 315 358 287 254 225 218 218 210 234 255 302 304 306 302 306 328 316 309 302 289 273 249 234 220 203 197 192 174 170 175 171 166 162 161 162 157 153 158 161 160
141 124 132 288 6 255 252 275 207 176 326 302 269 308 315 289 278 343 13 352 328 317 307 296 284 272 255 233 212 194 176 172 176 178 177 172 167 167 162 161 167 167 162 166
158 146 147 165 257 280 295 326 352 156 26 357 336 333 334 324 353 345 358 351 317 305 299 290 281 270 261 242 210 178 177 177 179 185 186 181 174 171 170 174 175 168 163 169
123 129 144 169 219 244 265 305 310 120 241 353 8 354 347 9 4 302 328 331 321 312 307 306 307 302 292 268 195 174 184 185 197 198 190 179 174 175 179 179 172 166 168 177
133 150 182 199 236 262 273 300 355 154 259 335 346 343 347 334 263 287 311 319 319 315 315 319 319 313 294 286 188 187 193 208 210 188 173 174 176 177 175 170 165 165 167 169
173 174 190 180 211 251 303 46 107 232 314 341 334 330 319 302 296 304 312 318 323 325 324 328 326 321 317 310 189 206 220 218 177 164 169 174 174 173 169 168 169 169 171 179
188 187 186 193 210 238 73 108 49 24 352 329 320 319 317 310 309 313 314 316 318 316 316 322 320 320 325 327 227 227 236 179 163 164 172 173 170 171 168 171 174 175 182 191
248 169 170 214 228 187 140 111 47 17 332 314 313 315 320 312 311 313 313 312 314 315 315 317 320 317 315 319 316 267 230 174 164 173 174 169 170 172 171 176 179 186 192 198
219 181 181 221 219 169 208 170 348 343 338 328 322 317 314 313 314 315 313 310 309 312 314 316 311 306 306 317 315 306 219 167 171 178 177 176 179 178 183 190 196 199 205 204
203 182 180 212 202 188 226 233 332 334 323 322 322 321 320 310 307 311 309 310 311 312 314 315 313 308 307 312 309 301 244 183 181 188 189 188 187 187 190 194 211 222 221 227